Retour au catalogue

DELTA 1 R/B

ActifHEO
NORAD 4354·ROCKET BODY·🇺🇸 United States

Lancé Mar 20, 1970 depuis Cape Canaveral Space Force Station

Loading…

Prochains Passages (prochaines 24 heures)

TLE

FraisSource: Space-Track

Époque: Sep 14, 2026, 07:37 UTC

1 04354U 70021B   26257.31747144  .00004576  00000-0  93159-3 0  9991
2 04354  25.2294 252.9909 6294879 225.2441  61.9720  3.61000459381772

Suivez DELTA 1 R/B en temps réel avec AllMySat

Download on the App Store